Location: *
(44.1392°N, 4.8079°E)
Time: 13:39:42
(UTC+00:00)

USA 307 - Visible Passes

Search period start: 22 October 2021 00:00
Search period end: 01 November 2021 00:00
Orbit: 555 x 584 km, 54.0° (Epoch: 27 September)

Date Brightness Start Highest point End Pass type
(mag) Time Alt. Az. Time Alt. Az. Time Alt. Az.
22 Oct 4.7 04:29:33 10° SSW 04:33:12 29° SE 04:36:49 10° ENE visible
23 Oct 3.9 04:30:24 13° SSW 04:33:50 43° SE 04:37:48 10° ENE visible
24 Oct 3.1 04:31:59 23° SW 04:34:30 65° SE 04:38:39 10° ENE visible
25 Oct 5.8 02:57:17 13° ESE 02:57:17 13° ESE 02:58:20 10° E visible
25 Oct 2.7 04:33:23 33° SW 04:35:13 88° NW 04:39:26 10° NE visible
26 Oct 5.7 02:58:32 16° E 02:58:32 16° E 02:59:43 10° ENE visible
26 Oct 2.9 04:34:36 39° W 04:35:59 63° NNW 04:40:08 10° NE visible
27 Oct 5.6 02:59:38 17° ENE 02:59:38 17° ENE 03:00:45 10° ENE visible
27 Oct 3.2 04:35:43 37° WNW 04:36:46 46° NNW 04:40:49 10° NE visible
28 Oct 5.7 03:00:38 16° ENE 03:00:38 16° ENE 03:01:37 10° ENE visible
28 Oct 3.6 04:36:43 32° NW 04:37:35 36° NNW 04:41:29 10° NE visible
29 Oct 5.7 03:01:33 15° ENE 03:01:33 15° ENE 03:02:24 10° ENE visible
29 Oct 3.9 04:37:37 28° NW 04:38:26 30° NNW 04:42:09 10° NE visible
30 Oct 5.8 03:02:25 14° NE 03:02:25 14° NE 03:03:04 10° NE visible
30 Oct 4.2 04:38:28 24° NW 04:39:18 26° NNW 04:42:50 10° NE visible
31 Oct 5.8 03:03:12 13° NE 03:03:12 13° NE 03:03:44 10° NE visible
31 Oct 4.4 04:39:15 21° NNW 04:40:11 23° N 04:43:34 10° NE visible
